Wind_Speed
8 7 10 10 16 9 11 12 9 9 12 11 12 15 16 20 17 20 21 22 22 22 20 18 18 9 14 7 20 24 25 22 25 25 22 26 28 27 27 20 17 18 19
6 9 10 9 15 10 12 15 12 10 11 12 14 13 14 18 18 20 20 17 22 26 24 21 18 17 17 14 13 18 27 14 18 25 31 28 24 24 26 21 20 21 20
5 7 9 11 12 9 12 12 14 12 12 14 14 13 12 14 16 17 20 20 21 26 25 22 20 15 13 16 11 13 17 10 12 25 28 24 24 24 28 23 22 19 17
6 4 8 9 11 12 10 10 11 11 10 12 15 14 13 14 17 16 19 20 21 21 20 19 17 17 13 14 12 8 13 14 23 23 21 23 25 25 22 20 18 15 14
5 5 6 9 11 12 10 10 14 13 12 12 14 15 14 14 17 17 17 18 19 20 20 17 15 15 15 13 10 5 11 13 22 19 24 26 25 22 19 18 17 15 11
6 6 6 9 12 15 15 16 13 13 13 15 15 14 14 12 14 14 18 18 19 16 15 18 19 18 14 15 15 15 11 16 23 27 26 25 24 23 17 15 13 11 9
6 4 8 11 11 12 9 8 12 12 11 16 13 12 9 9 11 6 10 14 16 16 20 17 18 18 14 15 14 20 13 15 24 26 28 27 21 17 15 13 10 9 11
6 6 12 14 13 15 16 15 13 14 14 12 14 11 16 18 21 19 23 22 21 19 24 23 23 19 13 18 19 17 25 24 21 19 16 13 13 16 14 11 11 9 11
6 7 10 12 11 13 15 17 18 18 17 17 21 19 15 20 19 18 22 22 21 23 22 32 28 28 25 27 26 26 21 15 15 16 15 13 12 10 10 9 9 12 15
4 7 7 9 9 11 13 14 16 16 18 20 18 20 23 24 24 22 20 16 22 25 25 23 23 22 21 19 18 17 16 14 13 11 9 9 8 5 8 10 12 16 20
3 6 8 9 10 11 13 14 14 15 15 16 17 16 19 19 21 19 20 21 22 22 22 20 18 17 16 15 13 11 7 6 5 5 5 6 7 8 11 14 18 22 25
5 5 7 9 10 10 10 10 11 11 10 12 13 15 16 16 16 16 15 15 16 16 17 15 12 11 9 7 7 5 2 1 3 5 7 9 10 12 16 20 23 24 26
8 6 6 8 9 8 8 10 11 13 14 14 14 15 14 13 13 12 11 10 11 11 10 8 6 5 4 2 0 1 3 5 6 10 12 14 15 18 20 22 23 26 29
6 9 8 6 8 10 10 9 13 14 14 15 15 15 15 15 14 13 12 11 10 9 7 6 4 2 1 2 4 6 8 12 14 15 17 19 20 22 23 23 27 30 33
8 9 10 9 8 9 9 11 13 13 13 12 13 12 11 10 9 7 6 4 3 2 2 2 3 5 6 7 8 11 15 17 17 19 21 22 24 25 24 27 30 33 35
11 10 12 11 11 11 11 13 13 13 11 13 12 9 5 3 2 2 3 4 5 6 7 8 9 10 10 11 14 18 20 20 21 23 24 26 26 27 29 31 33 35 37
17 14 14 13 14 14 14 13 13 12 12 13 13 9 6 6 7 8 8 8 8 10 11 11 11 13 14 15 19 23 24 24 25 25 27 28 29 31 32 34 36 39 42
20 19 17 16 17 18 18 18 17 16 16 15 15 15 15 16 16 16 13 11 11 12 14 14 14 15 16 19 23 25 26 26 27 28 30 32 33 34 35 35 36 38 38
18 19 20 21 20 20 21 22 21 21 20 21 20 21 22 22 19 15 13 17 18 16 14 13 12 15 19 25 26 27 28 29 30 32 33 34 36 36 34 37 37 40 43
18 19 21 24 24 25 22 21 22 23 23 23 22 22 21 21 18 17 17 18 18 20 19 18 22 22 20 19 22 27 29 34 35 38 37 38 39 38 38 37 40 41 42
19 21 22 23 23 24 26 23 22 23 22 21 22 23 21 20 17 15 17 19 21 23 25 25 25 26 27 27 27 25 27 33 41 43 41 39 40 39 40 41 46 42 46
23 23 24 24 25 24 24 25 27 26 26 26 26 25 24 23 24 22 21 23 29 30 29 32 31 33 35 33 30 30 31 30 33 39 48 48 43 42 40 44 42 43 44
28 27 26 26 26 28 29 29 27 26 28 29 30 29 30 29 30 30 29 30 35 34 32 36 36 37 42 44 39 31 31 31 34 34 38 45 52 55 50 47 45 47 42
31 29 29 26 26 27 28 29 30 28 26 27 29 31 32 34 33 33 36 37 38 38 37 38 39 42 45 36 35 41 40 40 39 42 43 46 48 51 56 45 42 40 46
35 31 28 25 24 24 24 24 26 27 27 27 27 28 32 35 36 36 36 36 35 35 33 34 35 37 38 41 41 41 41 43 40 46 48 49 56 48 39 34 42 49 48
34 32 28 26 26 27 25 25 25 25 26 28 30 32 34 36 35 35 34 35 37 39 38 38 38 38 41 43 44 43 43 47 48 49 52 56 46 35 38 42 48 51 50
Wind_Direction
348 352 357 4 10 28 34 30 37 73 123 119 119 124 137 142 148 149 143 153 158 151 148 149 140 130 142 165 127 173 179 185 172 183 183 173 179 181 182 179 183 199 205
10 23 23 18 23 37 45 39 71 87 121 122 127 133 139 143 142 152 165 157 167 162 162 166 168 166 174 157 114 151 169 166 168 180 168 171 177 186 194 199 201 204 208
13 15 29 30 33 37 54 60 67 89 116 120 119 122 131 150 146 149 148 151 161 165 167 174 174 169 172 170 167 160 161 193 189 171 173 180 190 192 191 195 204 211 200
9 359 25 22 31 41 79 74 86 87 122 126 123 118 120 124 147 150 155 158 160 168 174 176 174 168 147 161 171 165 177 185 173 169 174 183 180 183 193 203 204 195 203
26 21 24 31 36 59 91 87 91 102 107 102 120 121 128 134 137 142 154 164 166 166 172 173 162 158 170 173 166 198 173 154 174 179 170 172 178 187 190 183 189 205 220
29 35 25 55 61 86 97 92 99 89 99 115 119 104 100 147 158 164 168 166 167 167 175 172 176 173 185 177 190 171 166 151 156 160 172 175 180 177 174 202 214 219 238
38 41 72 76 75 80 80 100 93 97 114 95 114 96 98 151 156 137 141 159 174 188 174 174 176 169 166 177 178 167 170 164 174 180 184 183 168 172 204 212 221 240 260
60 91 95 93 86 78 80 87 109 100 93 113 104 83 73 118 107 102 120 126 138 140 155 153 164 169 182 168 162 172 169 166 173 165 151 153 182 201 211 220 241 269 304
84 108 110 101 94 90 87 90 96 98 102 94 96 90 89 89 93 114 121 108 115 121 122 133 140 146 153 153 156 165 163 148 152 164 178 188 197 211 233 264 299 308 301
109 122 122 106 96 98 100 99 98 97 99 97 89 95 96 98 95 106 123 137 127 121 129 137 140 136 134 138 143 152 154 151 148 162 184 210 229 271 303 302 300 294 296
151 137 138 124 116 111 103 103 102 99 99 103 106 97 95 98 99 94 96 98 110 112 112 114 120 128 133 132 129 125 132 143 175 215 249 275 287 289 288 295 292 293 295
213 168 151 141 135 130 123 121 114 107 110 109 107 105 104 104 103 103 102 104 107 113 121 127 130 133 133 133 121 119 111 248 281 291 294 293 290 287 282 280 288 293 301
225 209 187 166 157 150 133 128 126 118 111 106 102 99 98 99 102 106 110 112 116 120 122 119 119 124 125 112 59 334 291 290 290 282 277 278 276 279 285 290 295 302 307
224 220 209 200 179 166 154 150 138 132 126 118 113 106 100 96 94 93 94 98 101 101 103 108 113 119 142 286 286 284 281 277 277 282 287 291 292 290 292 297 302 302 302
219 221 218 205 192 179 169 168 162 154 148 141 131 118 108 96 86 77 74 75 70 44 350 312 290 285 284 287 288 278 273 276 287 293 293 294 293 290 291 292 294 297 304
226 223 223 214 205 198 200 194 191 186 180 168 159 151 139 114 58 15 341 306 290 284 282 286 289 289 290 290 286 282 287 293 293 293 292 289 286 285 288 295 298 300 305
229 230 229 228 221 213 217 217 215 212 207 202 203 209 227 260 288 297 297 283 278 278 282 287 289 288 285 277 273 275 281 286 290 290 286 283 282 285 292 296 297 303 305
236 239 233 232 232 227 224 229 228 227 230 235 242 251 259 269 277 284 282 270 272 285 287 289 290 289 283 276 276 279 285 287 287 285 284 285 288 291 295 297 302 306 309
233 236 238 241 241 239 237 235 234 236 239 242 249 257 263 268 273 272 272 272 276 278 281 286 279 292 305 279 275 279 279 281 283 284 287 289 291 293 293 298 298 306 309
240 234 236 240 242 241 238 241 242 242 244 248 251 252 257 263 264 268 271 280 280 278 279 281 284 290 292 305 300 290 290 289 290 288 286 289 290 290 292 290 294 303 310
244 242 240 242 240 240 235 236 241 244 243 247 252 255 256 258 263 271 275 279 278 278 278 284 277 283 289 295 280 286 293 305 303 300 293 289 288 290 292 291 292 301 294
237 241 239 238 238 239 234 238 244 249 253 256 259 262 262 259 263 274 275 281 278 269 272 272 277 284 287 287 286 277 284 291 292 286 281 282 285 286 285 290 296 293 298
235 238 242 236 235 239 244 250 251 257 256 256 259 262 263 267 268 271 275 280 283 286 275 277 283 277 281 279 277 281 286 289 284 290 292 284 285 286 288 281 277 285 298
233 236 241 241 238 238 241 244 249 254 252 251 255 260 266 268 269 269 274 277 279 281 278 275 278 277 284 280 280 282 285 289 285 291 294 296 290 296 298 286 287 286 291
235 239 241 241 242 244 245 246 249 252 256 259 262 263 265 267 270 272 273 274 275 280 280 279 280 280 282 281 280 281 283 280 293 289 287 289 292 299 288 288 286 287 297
231 237 242 247 249 251 250 252 252 255 261 263 260 259 260 263 264 265 265 267 269 271 276 277 279 280 281 281 281 285 283 292 288 281 283 291 291 290 287 295 287 291 296
Height
5718 5716 5713 5709 5705 5701 5699 5695 5692 5691 5691 5693 5693 5694 5695 5696 5698 5700 5703 5706 5712 5717 5722 5724 5727 5730 5734 5736 5737 5744 5751 5755 5760 5764 5770 5775 5779 5783 5787 5791 5795 5799 5801
5719 5716 5714 5711 5707 5703 5702 5698 5695 5694 5695 5695 5696 5697 5698 5700 5702 5704 5706 5709 5713 5718 5723 5726 5730 5733 5737 5741 5743 5746 5751 5756 5761 5763 5769 5774 5779 5784 5788 5791 5795 5797 5799
5721 5718 5716 5713 5710 5706 5704 5703 5700 5698 5699 5699 5699 5699 5701 5702 5705 5707 5710 5713 5716 5721 5725 5729 5732 5736 5739 5743 5746 5749 5753 5756 5760 5765 5769 5774 5779 5784 5788 5791 5794 5797 5799
5722 5720 5718 5715 5711 5708 5706 5706 5704 5703 5703 5703 5703 5704 5704 5706 5708 5710 5713 5717 5720 5723 5727 5731 5735 5738 5741 5744 5747 5752 5755 5757 5761 5765 5769 5775 5779 5784 5788 5791 5794 5796 5798
5723 5721 5720 5717 5714 5710 5710 5710 5709 5707 5707 5707 5706 5707 5709 5710 5711 5713 5715 5718 5722 5725 5728 5731 5735 5739 5743 5746 5750 5753 5757 5759 5763 5767 5771 5777 5780 5784 5788 5790 5793 5795 5797
5725 5723 5722 5720 5718 5715 5714 5714 5714 5712 5712 5711 5711 5712 5713 5712 5713 5715 5717 5720 5724 5728 5730 5734 5737 5741 5744 5747 5751 5755 5758 5761 5765 5770 5774 5778 5781 5785 5788 5790 5792 5795 5796
5727 5726 5724 5723 5722 5720 5719 5718 5718 5717 5716 5717 5716 5715 5716 5716 5716 5716 5718 5721 5724 5728 5732 5735 5740 5743 5746 5749 5751 5756 5761 5764 5767 5771 5774 5777 5781 5785 5788 5791 5793 5794 5795
5729 5729 5727 5726 5726 5725 5723 5722 5721 5721 5721 5721 5721 5720 5719 5718 5720 5720 5722 5725 5727 5729 5731 5736 5741 5744 5748 5751 5755 5759 5762 5765 5770 5774 5776 5779 5783 5786 5788 5789 5792 5792 5792
5731 5732 5731 5730 5729 5729 5729 5728 5727 5727 5726 5726 5727 5726 5725 5725 5725 5727 5728 5730 5732 5734 5736 5740 5744 5748 5752 5755 5758 5762 5765 5770 5773 5777 5780 5781 5783 5784 5786 5788 5789 5788 5789
5734 5734 5734 5733 5733 5733 5733 5732 5732 5732 5732 5732 5732 5733 5732 5731 5733 5734 5735 5736 5738 5740 5744 5747 5750 5753 5756 5759 5763 5767 5771 5774 5776 5778 5780 5781 5781 5782 5784 5784 5785 5784 5784
5735 5735 5736 5736 5737 5737 5737 5737 5737 5736 5736 5737 5737 5738 5738 5739 5739 5740 5741 5743 5744 5747 5750 5753 5756 5760 5762 5765 5767 5770 5772 5774 5775 5777 5778 5780 5781 5781 5782 5781 5781 5781 5779
5736 5737 5737 5738 5739 5740 5740 5741 5741 5740 5740 5741 5741 5742 5743 5743 5745 5746 5748 5750 5751 5752 5754 5757 5760 5763 5765 5767 5769 5771 5771 5772 5773 5775 5775 5776 5776 5777 5778 5778 5777 5774 5770
5736 5737 5738 5739 5741 5742 5743 5743 5744 5744 5745 5745 5745 5746 5747 5748 5749 5750 5751 5753 5755 5756 5758 5760 5762 5764 5766 5767 5768 5768 5769 5771 5772 5773 5774 5774 5775 5775 5773 5771 5768 5766 5764
5735 5737 5738 5739 5741 5743 5745 5745 5746 5747 5748 5748 5749 5749 5750 5751 5753 5754 5756 5757 5758 5759 5760 5761 5762 5764 5765 5767 5768 5768 5768 5769 5770 5770 5770 5769 5768 5766 5764 5763 5761 5759 5757
5734 5736 5737 5740 5741 5743 5745 5747 5748 5749 5750 5751 5752 5753 5754 5755 5756 5757 5758 5759 5759 5760 5761 5762 5763 5764 5765 5766 5766 5766 5765 5765 5765 5764 5764 5763 5761 5759 5758 5757 5754 5751 5748
5733 5735 5736 5738 5741 5743 5745 5746 5748 5749 5750 5752 5752 5754 5755 5756 5757 5758 5758 5759 5760 5760 5761 5762 5762 5762 5763 5763 5762 5760 5760 5760 5760 5760 5758 5756 5755 5753 5751 5749 5746 5742 5738
5731 5734 5735 5737 5739 5742 5744 5745 5747 5748 5750 5751 5753 5754 5754 5755 5756 5757 5758 5759 5759 5759 5759 5759 5760 5760 5760 5759 5758 5757 5757 5757 5756 5755 5752 5750 5749 5746 5743 5740 5737 5734 5730
5728 5730 5733 5735 5736 5739 5741 5743 5745 5747 5748 5749 5750 5751 5752 5753 5753 5754 5755 5756 5756 5756 5757 5757 5756 5755 5755 5754 5753 5752 5751 5750 5748 5747 5745 5743 5741 5739 5736 5733 5729 5725 5720
5724 5726 5729 5731 5733 5735 5737 5739 5742 5744 5745 5746 5747 5747 5747 5748 5749 5750 5751 5751 5751 5752 5752 5751 5751 5750 5750 5748 5746 5746 5744 5742 5741 5739 5736 5734 5732 5730 5727 5723 5719 5715 5709
5718 5721 5723 5725 5727 5729 5732 5735 5736 5738 5740 5741 5742 5742 5743 5744 5745 5745 5746 5746 5746 5746 5746 5746 5745 5744 5743 5742 5740 5738 5737 5735 5733 5730 5728 5725 5723 5720 5716 5713 5710 5705 5700
5712 5714 5716 5719 5721 5724 5726 5728 5730 5732 5734 5736 5737 5737 5738 5739 5740 5741 5741 5742 5741 5740 5739 5739 5737 5736 5735 5734 5732 5730 5728 5725 5722 5721 5719 5716 5713 5710 5707 5704 5700 5696 5691
5705 5707 5708 5711 5714 5717 5720 5722 5724 5726 5728 5730 5731 5732 5732 5733 5734 5735 5735 5735 5734 5733 5731 5730 5730 5728 5726 5725 5723 5720 5718 5716 5714 5712 5707 5703 5701 5698 5696 5693 5689 5685 5681
5698 5700 5702 5705 5707 5709 5711 5714 5716 5718 5720 5721 5722 5724 5725 5726 5727 5728 5727 5727 5726 5723 5723 5722 5720 5720 5718 5714 5713 5711 5708 5707 5704 5701 5697 5694 5691 5687 5682 5680 5676 5673 5669
5689 5691 5694 5698 5700 5702 5703 5705 5708 5710 5711 5712 5713 5714 5714 5716 5717 5718 5718 5717 5715 5714 5713 5712 5711 5709 5708 5705 5703 5700 5698 5695 5692 5688 5686 5683 5680 5677 5671 5667 5666 5662 5659
5682 5684 5686 5690 5694 5695 5696 5698 5700 5701 5703 5704 5705 5706 5706 5705 5706 5706 5706 5704 5704 5703 5702 5701 5700 5698 5697 5695 5693 5690 5687 5684 5680 5680 5677 5673 5667 5663 5659 5657 5655 5653 5648
5675 5678 5681 5685 5688 5689 5688 5690 5691 5693 5694 5696 5696 5697 5697 5696 5696 5696 5696 5695 5695 5693 5692 5691 5690 5688 5686 5683 5681 5678 5676 5673 5670 5666 5662 5659 5655 5652 5651 5650 5648 5645 5640